This demonstration page uses our WeatherBlox Daily Observations layout. Learn more.

Left ArrowRight Arrow

39.92423, -83.80882

Hourly Observations for February 16, 2022

Temp ( °F °C ) Dew Point ( °F °C ) Humidity (%) Winds ( mph kmh ) Pressure ( in mb ) Visibility ( mi km ) Precip ( " mm )
12:56 am 00:56 Clear 38 3.3 26 -3.3 62 62 SSE 10 17 30.27 1025 10 16 0.00 0.00
1:56 am 01:56 Clear 41 5 27 -2.8 57 57 S 9 15 30.24 1024 10 16 0.00 0.00
2:56 am 02:56 Clear 43 6.1 28 -2.2 56 56 S 12 19 30.23 1024 10 16 0.00 0.00
3:56 am 03:56 Clear 44 6.7 28 -2.2 53 53 S 13 20 30.22 1023 10 16 0.00 0.00
4:56 am 04:56 Clear 44 6.7 28 -2.2 53 53 S 12 19 30.23 1024 10 16 0.00 0.00
5:56 am 05:56 Clear 43 6.1 29 -1.7 58 58 S 10 17 30.24 1024 10 16 0.00 0.00
6:56 am 06:56 Clear 44 6.7 29 -1.7 55 55 S 14 22 30.24 1024 10 16 0.00 0.00
7:56 am 07:56 Sunny 44 6.7 29 -1.7 55 55 S 14 22 30.24 1024 10 16 0.00 0.00
8:56 am 08:56 Sunny 44 6.7 29 -1.7 55 55 S 13 20 30.24 1024 10 16 0.00 0.00
9:56 am 09:56 Sunny 46 7.8 30 -1.1 54 54 S 18 30 30.22 1023 10 16 0.00 0.00
10:56 am 10:56 Sunny 49 9.4 32 0 52 52 S 15 24 30.21 1023 10 16 0.00 0.00
11:56 am 11:56 Mostly Sunny 53 11.7 35 1.7 51 51 S 17 28 30.18 1022 10 16 0.00 0.00
12:56 pm 12:56 Cloudy 54 12.2 37 2.8 53 53 SSW 17 28 30.14 1021 10 16 0.00 0.00
1:56 pm 13:56 Cloudy 56 13.3 39 3.9 53 53 SSW 12 19 30.12 1020 10 16 0.00 0.00
2:56 pm 14:56 Cloudy 57 13.9 41 5 55 55 S 15 24 30.09 1019 10 16 0.00 0.00
3:56 pm 15:56 Cloudy 57 13.9 42 5.6 58 58 S 14 22 30.06 1018 10 16 0.00 0.00
4:56 pm 16:56 Cloudy with Light Rain 56 13.3 42 5.6 60 60 S 10 17 30.06 1018 10 16 0.00 0.00
5:56 pm 17:56 Cloudy 55 12.8 42 5.6 62 62 S 9 15 30.06 1018 10 16 0.00 0.00
6:56 pm 18:56 Cloudy 54 12.2 41 5 62 62 S 12 19 30.08 1019 10 16 0.00 0.00
7:56 pm 19:56 Mostly Cloudy 54 12.2 41 5 62 62 S 13 20 30.09 1019 10 16 0.00 0.00
8:56 pm 20:56 Cloudy 55 12.8 42 5.6 62 62 S 14 22 30.07 1018 10 16 0.00 0.00
9:56 pm 21:56 Partly Cloudy 54 12.2 43 6.1 67 67 S 15 24 30.06 1018 10 16 0.00 0.00
10:56 pm 22:56 Partly Cloudy 54 12.2 43 6.1 67 67 S 14 22 30.04 1017 10 16 0.00 0.00
11:56 pm 23:56 Mostly Cloudy 55 12.8 44 6.7 67 67 S 15 24 30.01 1016 10 16 0.00 0.00

Powered by AerisWeather